EXS9CX EGBB-LEMH

Flight info

Callsign EXS9CX
Flight time N/A
Altitude 37000
Route CPT UN859 SOPIL DCT BALAN DCT EVPOK DCT NARAK DCT GAI DCT LOMRA DCT ROCAN DCT GEANT DCT GIR DCT SALON DCT SULID N727 SARGO
Aircraft B738/M-SDE2E3FGHIRWXY/LB1

Departure

Time N/A
Airport Birmingham Airport (EGBB)

Arrival

Time 2026-04-10 15:00
Airport Menorca Airport (LEMH)
Time Latitude Longitude Altitude Speed Heading
2026-04-10 14:28 42.20387 2.47115 37061 ft 460 kts 140°
2026-04-10 14:28 42.15456 2.52576 37029 ft 455 kts 140°
2026-04-10 14:29 42.10590 2.57954 36709 ft 449 kts 140°
2026-04-10 14:29 42.08199 2.60592 36428 ft 441 kts 140°
2026-04-10 14:29 42.05836 2.63197 36078 ft 436 kts 140°
2026-04-10 14:29 42.03496 2.65775 35695 ft 433 kts 140°
2026-04-10 14:30 42.01204 2.68297 35326 ft 430 kts 140°
2026-04-10 14:30 41.98905 2.70826 34945 ft 427 kts 140°
2026-04-10 14:30 41.96615 2.73342 34570 ft 424 kts 140°
2026-04-10 14:30 41.94336 2.75842 34191 ft 421 kts 140°
2026-04-10 14:31 41.92050 2.78286 33837 ft 417 kts 142°
2026-04-10 14:31 41.89729 2.80570 33579 ft 410 kts 143°
2026-04-10 14:31 41.87400 2.82781 32976 ft 412 kts 144°
2026-04-10 14:31 41.85053 2.84984 32527 ft 411 kts 144°
2026-04-10 14:32 41.82721 2.87178 32118 ft 409 kts 145°
2026-04-10 14:32 41.80404 2.89368 31736 ft 406 kts 145°
2026-04-10 14:32 41.78105 2.91550 31367 ft 404 kts 145°
2026-04-10 14:32 41.75819 2.93725 30998 ft 401 kts 145°
2026-04-10 14:33 41.73558 2.95879 30649 ft 399 kts 145°
2026-04-10 14:33 41.71299 2.98031 30303 ft 397 kts 145°
2026-04-10 14:33 41.69107 3.00117 29942 ft 394 kts 145°
2026-04-10 14:33 41.66877 3.02237 29543 ft 392 kts 145°
2026-04-10 14:34 41.64669 3.04336 29197 ft 388 kts 146°
2026-04-10 14:34 41.62480 3.06413 28820 ft 385 kts 145°
2026-04-10 14:34 41.60308 3.08473 28489 ft 381 kts 145°
2026-04-10 14:34 41.58152 3.10515 28123 ft 378 kts 145°
2026-04-10 14:35 41.56016 3.12539 27785 ft 375 kts 145°
2026-04-10 14:35 41.53901 3.14541 27430 ft 372 kts 145°
2026-04-10 14:35 41.51794 3.16531 27086 ft 369 kts 146°
2026-04-10 14:35 41.49702 3.18505 26741 ft 367 kts 146°
2026-04-10 14:36 41.47582 3.20372 26400 ft 365 kts 149°
2026-04-10 14:36 41.45425 3.22143 26058 ft 362 kts 150°
2026-04-10 14:36 41.43297 3.23856 25721 ft 361 kts 150°
2026-04-10 14:36 41.41155 3.25581 25389 ft 359 kts 150°
2026-04-10 14:37 41.39028 3.27300 25064 ft 357 kts 150°
2026-04-10 14:37 41.36911 3.29020 24733 ft 355 kts 149°
2026-04-10 14:37 41.34804 3.30736 24405 ft 354 kts 149°
2026-04-10 14:37 41.32706 3.32447 24078 ft 353 kts 149°
2026-04-10 14:38 41.30621 3.34148 23755 ft 352 kts 149°
2026-04-10 14:38 41.28531 3.35853 23338 ft 352 kts 150°
2026-04-10 14:38 41.26452 3.37547 22993 ft 350 kts 150°
2026-04-10 14:38 41.24382 3.39233 22648 ft 348 kts 150°
2026-04-10 14:39 41.22321 3.40911 22313 ft 346 kts 150°
2026-04-10 14:39 41.20278 3.42572 21987 ft 344 kts 150°
2026-04-10 14:39 41.18245 3.44224 21665 ft 342 kts 150°
2026-04-10 14:39 41.16227 3.45873 21379 ft 339 kts 150°
2026-04-10 14:40 41.14227 3.47512 21051 ft 337 kts 150°
2026-04-10 14:40 41.12239 3.49142 20736 ft 335 kts 150°
2026-04-10 14:40 41.10257 3.50765 20419 ft 334 kts 150°
2026-04-10 14:40 41.08285 3.52377 20098 ft 333 kts 150°
2026-04-10 14:41 41.06341 3.53964 19785 ft 331 kts 150°
2026-04-10 14:41 41.04381 3.55557 19473 ft 330 kts 150°
2026-04-10 14:41 41.02425 3.57140 19159 ft 329 kts 150°
2026-04-10 14:41 41.00471 3.58720 18847 ft 328 kts 150°
2026-04-10 14:42 40.98528 3.60290 18543 ft 327 kts 150°
2026-04-10 14:42 40.96590 3.61855 18211 ft 326 kts 150°
2026-04-10 14:42 40.94649 3.63422 17860 ft 325 kts 150°
2026-04-10 14:42 40.92724 3.64976 17530 ft 324 kts 150°
2026-04-10 14:43 40.90802 3.66527 17209 ft 322 kts 150°
2026-04-10 14:43 40.88894 3.68065 16888 ft 321 kts 150°
2026-04-10 14:43 40.87000 3.69590 16576 ft 319 kts 150°
2026-04-10 14:43 40.85120 3.71104 16273 ft 317 kts 150°
2026-04-10 14:44 40.83238 3.72618 15958 ft 316 kts 150°
2026-04-10 14:44 40.81368 3.74122 15662 ft 314 kts 150°
2026-04-10 14:44 40.79502 3.75621 15356 ft 313 kts 150°
2026-04-10 14:44 40.77642 3.77115 15051 ft 312 kts 150°
2026-04-10 14:45 40.75791 3.78600 14744 ft 311 kts 150°
2026-04-10 14:45 40.73944 3.80081 14440 ft 310 kts 150°
2026-04-10 14:45 40.72099 3.81560 14139 ft 310 kts 150°
2026-04-10 14:45 40.70261 3.83032 13829 ft 309 kts 151°
2026-04-10 14:46 40.68420 3.84505 13487 ft 309 kts 150°
2026-04-10 14:46 40.66585 3.85973 13163 ft 308 kts 150°
2026-04-10 14:46 40.65372 3.86943 12951 ft 307 kts 150°
2026-04-10 14:46 40.63549 3.88399 12639 ft 306 kts 150°
2026-04-10 14:47 40.61731 3.89851 12337 ft 305 kts 150°
2026-04-10 14:47 40.59920 3.91297 12034 ft 304 kts 150°
2026-04-10 14:47 40.58115 3.92737 11733 ft 303 kts 150°
2026-04-10 14:47 40.56315 3.94172 11426 ft 302 kts 150°
2026-04-10 14:48 40.54518 3.95604 11127 ft 302 kts 150°
2026-04-10 14:48 40.52725 3.97030 10822 ft 301 kts 150°
2026-04-10 14:48 40.50933 3.98455 10512 ft 301 kts 150°
2026-04-10 14:48 40.49074 3.99670 10251 ft 297 kts 164°
2026-04-10 14:49 40.47169 4.00376 10118 ft 289 kts 168°
2026-04-10 14:49 40.45224 4.01027 9821 ft 289 kts 168°
2026-04-10 14:49 40.43277 4.01676 9534 ft 287 kts 168°
2026-04-10 14:49 40.41346 4.02329 9260 ft 286 kts 168°
2026-04-10 14:50 40.39422 4.02990 8969 ft 285 kts 167°
2026-04-10 14:50 40.37512 4.03653 8694 ft 283 kts 167°
2026-04-10 14:50 40.35611 4.04318 8428 ft 282 kts 167°
2026-04-10 14:50 40.33723 4.04982 8164 ft 280 kts 167°
2026-04-10 14:51 40.31844 4.05643 7896 ft 279 kts 167°
2026-04-10 14:51 40.29975 4.06303 7641 ft 278 kts 167°
2026-04-10 14:51 40.28134 4.06952 7381 ft 276 kts 167°
2026-04-10 14:51 40.26281 4.07607 7117 ft 275 kts 167°
2026-04-10 14:52 40.24434 4.08258 6853 ft 274 kts 167°
2026-04-10 14:52 40.22593 4.08908 6578 ft 274 kts 167°
2026-04-10 14:52 40.20743 4.09560 6204 ft 277 kts 167°
2026-04-10 14:52 40.19282 4.10075 5972 ft 276 kts 167°
2026-04-10 14:53 40.17426 4.10729 5674 ft 275 kts 167°
2026-04-10 14:53 40.15573 4.11383 5396 ft 274 kts 167°
2026-04-10 14:53 40.13760 4.12021 5256 ft 267 kts 167°
2026-04-10 14:53 40.11951 4.12657 4984 ft 266 kts 167°
2026-04-10 14:54 40.10167 4.13302 4620 ft 269 kts 162°
2026-04-10 14:54 40.08644 4.14635 4464 ft 266 kts 131°
2026-04-10 14:54 40.07874 4.16829 4189 ft 267 kts 100°
2026-04-10 14:54 40.07840 4.19184 4155 ft 254 kts 83°
2026-04-10 14:55 40.08074 4.21372 4057 ft 240 kts 86°
2026-04-10 14:55 40.07919 4.23462 3916 ft 226 kts 116°
2026-04-10 14:55 40.06900 4.24865 3813 ft 209 kts 158°
2026-04-10 14:55 40.05513 4.25178 3652 ft 200 kts 177°
2026-04-10 14:56 40.04142 4.25266 3587 ft 197 kts 181°
2026-04-10 14:56 40.02768 4.25203 3355 ft 196 kts 186°
2026-04-10 14:56 40.01424 4.24990 3100 ft 193 kts 189°
2026-04-10 14:56 40.00107 4.24725 2837 ft 190 kts 189°
2026-04-10 14:57 39.98808 4.24456 2588 ft 189 kts 189°
2026-04-10 14:57 39.97527 4.24190 2354 ft 183 kts 189°
2026-04-10 14:57 39.96305 4.23938 2110 ft 173 kts 189°
2026-04-10 14:57 39.95130 4.23696 1903 ft 171 kts 188°
2026-04-10 14:58 39.93960 4.23455 1656 ft 167 kts 188°
2026-04-10 14:58 39.92841 4.23223 1452 ft 161 kts 188°
2026-04-10 14:58 39.91747 4.22998 1251 ft 157 kts 188°
2026-04-10 14:58 39.90675 4.22782 1060 ft 156 kts 189°
2026-04-10 14:59 39.89616 4.22557 875 ft 151 kts 188°
2026-04-10 14:59 39.88598 4.22351 623 ft 146 kts 189°
2026-04-10 14:59 39.87604 4.22142 412 ft 144 kts 188°
2026-04-10 14:59 39.86639 4.21946 298 ft 121 kts 189°
2026-04-10 15:00 39.86157 4.21846 297 ft 42 kts 189°
2026-04-10 15:00 39.85884 4.21791 299 ft 35 kts 188°
2026-04-10 15:00 39.85686 4.21757 297 ft 26 kts 181°
2026-04-10 15:00 39.85529 4.21787 296 ft 18 kts 161°
2026-04-10 15:01 39.85426 4.21837 292 ft 13 kts 158°
2026-04-10 15:01 39.85405 4.21912 293 ft 7 kts 57°
2026-04-10 15:01 39.85421 4.21928 289 ft 0 kts 26°
2026-04-10 15:01 39.85465 4.21940 290 ft 11 kts
2026-04-10 15:02 39.85556 4.21959 293 ft 16 kts
2026-04-10 15:02 39.85676 4.21984 297 ft 19 kts
2026-04-10 15:02 39.85721 4.21993 297 ft 21 kts
2026-04-10 15:02 39.85888 4.22029 299 ft 26 kts
2026-04-10 15:03 39.86061 4.22063 298 ft 24 kts
2026-04-10 15:03 39.86171 4.22091 297 ft 13 kts 26°
2026-04-10 15:03 39.86185 4.22193 294 ft 11 kts 99°
2026-04-10 15:03 39.86211 4.22263 295 ft 9 kts 18°
2026-04-10 15:04 39.86273 4.22277 296 ft 9 kts
2026-04-10 15:04 39.86326 4.22289 294 ft 7 kts
2026-04-10 15:04 39.86374 4.22298 295 ft 7 kts
2026-04-10 15:04 39.86406 4.22305 294 ft 2 kts
2026-04-10 15:05 39.86424 4.22258 296 ft 0 kts 281°
2026-04-10 15:05 39.86426 4.22247 299 ft 1 kts 292°
2026-04-10 15:05 39.86430 4.22243 298 ft 2 kts 320°
2026-04-10 15:06 39.86438 4.22243 297 ft 2 kts
2026-04-10 15:06 39.86447 4.22248 295 ft 1 kts 24°
2026-04-10 15:06 39.86450 4.22250 295 ft 0 kts 26°